Weather in Ashkovo

Russia / Smolensk Oblast     55°35′53″N   34°58′58″E
temp.,
°C
wind,
m/s
gust,
m/s
humid.,
%
clouds,
%
prec.,
mm/h
press.,
hPa
HPBL,
m
25 october, mon
mon2500:00−2nw38915 0.0 1027272
03:00−2nw37935 0.0 1029224
06:00−2wnw2591100 0.0 1030158
09:00−1w358397 0.0 1030237
12:00+3wsw466487 0.0 1031631
15:00+4sw5862100 0.0 1029639
18:00+1ssw4117811 0.0 1028281
21:000sw613835 0.0 1027369
26 october, tue
tue2600:000sw6148599 0.0 1026396
03:000sw61484100 0.0 1026385
06:000sw61481100 0.0 1025369
09:00+1sw61475100 0.0 1024420
12:00+5sw71462100 0.0 1022574
15:00+5sw71459100 0.0 1021629
18:00+3sw61466100 0.0 1020433
21:00+3sw61470100 0.0 1020438
27 october, wed
wed2700:00+3sw61372100 0.0 1019380
03:00+2ssw61375100 0.0 1017364
06:00+2ssw61375100 0.0 1016370
09:00+3sw71475100 0.0 1015416
12:00+4sw71373100 0.0 1014541
15:00+5wsw61185100 0.3 1014493
18:00+5wsw61393100 0.0 1015549
21:00+6wsw61290100 0.1 1015474
28 october, thu
thu2800:00+4wsw5119286 0.0 1016310
03:00+4sw4109597 0.0 1015255
06:00+4ssw41092100 0.0 1013302
09:00+5sw51295100 0.3 1012452
12:00+7wsw51197100 1.0 1012423
15:00+10w51190100 1.2 1013604
18:00+9wnw51192100 0.3 1015417
21:00+8n5892100 0.4 1018608
29 october, fri
fri2900:00+6ne4791100 0.0 1021707
03:00+5ne3590100 0.1 1024319
06:00+4ne3591100 0.0 1026269
09:00+4ese249440 0.0 1028199
12:00+6sse347730 0.0 1029523
15:00+8s4573100 0.0 1029689
18:00+5s37873 0.0 1029143
21:00+5ssw51088100 0.0 1029239